Regional Weather Roundup
Issued by NWS

Home | Current Version | Previous Version | Graphics & Text | Print | Product List | Glossary On
Versions: 1 2 3 4 5 6 7 8 9 10 11 12 13 14 15 16 17 18 19 20 21 22 23 24 25 26 27 28 29 30 31 32 33 34 35 36 37 38 39 40 41 42 43 44 45 46 47 48 49 50
379
ASUS43 KOAX 200402
RWRNE

WEATHER ROUNDUP FOR NEBRASKA
NATIONAL WEATHER SERVICE OMAHA NE
1100 PM CDT SAT MAY 19 2018

NOTES: SATELLITE DATA IS BEING USED TO AUGMENT CLOUD COVER ABOVE
       12000 FEET.
       "FAIR" INDICATES FEW OR NO CLOUDS BELOW 12,000 FEET WITH NO
       SIGNIFICANT WEATHER AND/OR OBSTRUCTIONS TO VISIBILITY.


NEZ001>004-019>022-054>056-200500-
NEBRASKA PANHANDLE

CITY           SKY/WX    TMP DP  RH WIND       PRES   REMARKS
SCOTTSBLUFF    CLOUDY    44  42  93 W3        30.27R
ALLIANCE       CLOUDY    43  42  97 N9        30.24R
CHADRON        CLOUDY    45  43  93 SW3       30.26R
GORDON         MOCLDY    47  43  87 NW7       30.23S
KIMBALL        CLOUDY    40  39  96 N8        30.27R WCI  35
SIDNEY         CLOUDY    42  40  92 N10       30.26R
$$

NEZ057>060-069>072-079>082-200500-
SOUTHWEST NEBRASKA

CITY           SKY/WX    TMP DP  RH WIND       PRES   REMARKS
NORTH PLATTE   CLOUDY    49  45  86 N13G21    30.17R
IMPERIAL       CLOUDY    45  45 100 N16G26    30.21R
LEXINGTON      CLOUDY    51  50  96 N7        30.12R
MCCOOK         CLOUDY    50  49  96 N18G29    30.15R FOG
OGALLALA       CLOUDY    48  45  88 N14       30.21S
$$

NEZ005>010-023>029-035>040-094-200500-
NORTH CENTRAL NEBRASKA

CITY           SKY/WX    TMP DP  RH WIND       PRES   REMARKS
VALENTINE      CLOUDY    54  38  54 N13       30.18R
AINSWORTH      DRIZZLE   50  46  84 N8        30.16R
BROKEN BOW     LGT RAIN  51  50  96 N9        30.11S
O`NEILL        CLOUDY    54  53  97 W3        30.13R FOG
ORD            CLOUDY    51  50  96 N9        30.10R
THEDFORD       DRIZZLE   49  45  88 NW6       30.19R
$$

NEZ041-046>049-061>064-073>077-083>087-200500-
SOUTH CENTRAL NEBRASKA

CITY           SKY/WX    TMP DP  RH WIND       PRES   REMARKS
GRAND ISLAND   CLOUDY    52  49  89 N12       30.07R
AURORA         CLOUDY    52  51  98 N14       30.06R
HASTINGS       CLOUDY    52  50  93 N14       30.06R
HEBRON         CLOUDY    57  53  86 NE8       30.04S
HOLDREGE       DRIZZLE   49  49 100 N7        30.10R
KEARNEY        RAIN      50  49  96 N8        30.10R
YORK           CLOUDY    52  52 100 N9        30.05S
$$

NEZ011>018-030>034-042>045-200500-
NORTHEAST NEBRASKA

CITY           SKY/WX    TMP DP  RH WIND       PRES   REMARKS
NORFOLK        CLOUDY    53  52  96 N9        30.07R
ALBION         CLOUDY    53  51  94 N9        30.08S
BLAIR          LGT RAIN  58  56  94 NW6       30.03R
COLUMBUS       CLOUDY    54  52  93 N6        30.08R
FREMONT        CLOUDY    58  55  92 NW5       30.05R
TEKAMAH        CLOUDY    57  55  93 N13       30.03R
WAYNE          CLOUDY    55  53  95 N9        30.07R
$$

NEZ050>053-065>068-078-088>093-200500-
SOUTHEAST NEBRASKA

CITY           SKY/WX    TMP DP  RH WIND       PRES   REMARKS
LINCOLN        MOCLDY    54  52  93 N5        30.05R
OMAHA EPPLEY   CLOUDY    60  56  86 N10       30.01S
BEATRICE       MOCLDY    58  55  92 N8        30.03S FOG
FALLS CITY     CLOUDY    63  58  83 N6        29.98R
NEBRASKA CITY  MOCLDY    59  59  99 N9        30.02R
PLATTSMOUTH    MOCLDY    59  55  86 NW7       30.04R
$$

NEZ044-045-051>053-067-200500-
OMAHA AREA

CITY           SKY/WX    TMP DP  RH WIND       PRES   REMARKS
OMAHA EPPLEY   CLOUDY    60  56  86 N10       30.01S
BLAIR          LGT RAIN  58  56  94 NW6       30.03R
FREMONT        CLOUDY    58  55  92 NW5       30.05R
MILLARD        CLOUDY    59  56  90 NW3       30.04R
OFFUTT AFB     CLOUDY    60  56  87 W7        30.03R
PLATTSMOUTH    MOCLDY    59  55  86 NW7       30.04R
WAHOO          CLOUDY    57  54  88 N7        30.05R
$$




USA.gov is the U.S. government's official web portal to all federal, state and local government web resources and services.